TimeCST,TemperatureF,Dew PointF,Humidity,Sea Level PressureIn,VisibilityMPH,Wind Direction,Wind SpeedMPH,Gust SpeedMPH,PrecipitationIn,Events,Conditions,WindDirDegrees,DateUTC
12:15 AM,49.1,38.3,66,29.95,10.0,ESE,6.9,-,N/A,,Clear,120,2013-01-28 06:15:00
12:35 AM,47.7,39.4,73,29.95,10.0,West,4.6,-,N/A,,Clear,270,2013-01-28 06:35:00
12:55 AM,47.3,38.8,72,29.95,10.0,WNW,8.1,-,N/A,,Clear,300,2013-01-28 06:55:00
1:15 AM,46.9,38.5,72,29.95,10.0,WNW,3.5,-,N/A,,Clear,290,2013-01-28 07:15:00
1:35 AM,46.2,38.7,75,29.95,10.0,West,4.6,-,N/A,,Clear,280,2013-01-28 07:35:00
1:55 AM,46.4,39.2,76,29.96,10.0,WSW,5.8,-,N/A,,Clear,240,2013-01-28 07:55:00
2:15 AM,45.9,39.0,77,29.95,10.0,WNW,3.5,-,N/A,,Clear,290,2013-01-28 08:15:00
2:35 AM,45.9,39.0,77,29.95,10.0,West,6.9,-,N/A,,Clear,280,2013-01-28 08:35:00
2:55 AM,46.8,39.0,74,29.94,10.0,NW,6.9,-,N/A,,Clear,310,2013-01-28 08:55:00
3:15 AM,46.4,38.8,75,29.95,10.0,Calm,Calm,-,N/A,,Clear,0,2013-01-28 09:15:00
3:35 AM,45.9,38.8,76,29.95,10.0,Calm,Calm,-,N/A,,Clear,0,2013-01-28 09:35:00
3:55 AM,46.2,38.7,75,29.94,10.0,WNW,4.6,-,N/A,,Clear,300,2013-01-28 09:55:00
4:15 AM,44.6,38.1,78,29.93,10.0,Calm,Calm,-,N/A,,Clear,0,2013-01-28 10:15:00
4:35 AM,41.2,36.7,84,29.93,10.0,South,3.5,-,N/A,,Clear,180,2013-01-28 10:35:00
4:55 AM,41.0,36.9,85,29.93,10.0,West,4.6,-,N/A,,Clear,260,2013-01-28 10:55:00
5:15 AM,39.9,35.6,85,29.93,10.0,West,3.5,-,N/A,,Clear,260,2013-01-28 11:15:00
5:55 AM,41.0,36.5,84,29.93,10.0,Calm,Calm,-,N/A,,Clear,0,2013-01-28 11:55:00
6:15 AM,37.4,33.6,86,29.93,10.0,SSE,3.5,-,N/A,,Clear,160,2013-01-28 12:15:00
6:35 AM,38.1,34.7,87,29.94,10.0,South,3.5,-,N/A,,Clear,170,2013-01-28 12:35:00
6:55 AM,39.0,35.4,87,29.94,10.0,Calm,Calm,-,N/A,,Clear,0,2013-01-28 12:55:00
7:15 AM,38.3,34.7,87,29.95,7.0,SSE,6.9,-,N/A,,Clear,160,2013-01-28 13:15:00
7:35 AM,36.9,33.8,89,29.95,10.0,SSE,6.9,-,N/A,,Clear,150,2013-01-28 13:35:00
7:55 AM,38.1,35.4,90,29.95,10.0,SSE,3.5,-,N/A,,Clear,150,2013-01-28 13:55:00
8:15 AM,38.3,35.1,88,29.95,10.0,SE,5.8,-,N/A,,Clear,140,2013-01-28 14:15:00
8:35 AM,40.1,37.4,90,29.95,10.0,South,3.5,-,N/A,,Clear,190,2013-01-28 14:35:00
8:55 AM,43.7,39.2,84,29.95,10.0,Calm,Calm,-,N/A,,Clear,0,2013-01-28 14:55:00
9:35 AM,51.3,41.0,68,29.95,10.0,Calm,Calm,-,N/A,,Clear,0,2013-01-28 15:35:00
10:15 AM,57.7,42.1,56,29.96,10.0,South,3.5,-,N/A,,Clear,170,2013-01-28 16:15:00
10:35 AM,60.3,42.6,52,29.95,10.0,Calm,Calm,-,N/A,,Clear,0,2013-01-28 16:35:00
12:15 PM,72.5,37.0,27,29.91,10.0,South,6.9,-,N/A,,Clear,180,2013-01-28 18:15:00
12:35 PM,74.1,35.4,24,29.89,10.0,South,3.5,-,N/A,,Clear,170,2013-01-28 18:35:00
1:15 PM,75.9,34.3,22,29.86,10.0,SW,10.4,18.4,N/A,,Clear,230,2013-01-28 19:15:00
1:55 PM,77.9,30.0,17,29.84,10.0,SW,8.1,-,N/A,,Clear,220,2013-01-28 19:55:00
2:55 PM,77.4,28.0,16,29.81,10.0,WSW,12.7,16.1,N/A,,Clear,240,2013-01-28 20:55:00
3:55 PM,75.4,27.5,17,29.81,10.0,West,16.1,-,N/A,,Clear,260,2013-01-28 21:55:00
4:15 PM,74.5,27.5,18,29.80,10.0,West,9.2,-,N/A,,Clear,280,2013-01-28 22:15:00
4:55 PM,73.4,29.1,19,29.80,10.0,SW,13.8,17.3,N/A,,Clear,230,2013-01-28 22:55:00
5:55 PM,69.3,31.1,24,29.80,10.0,SSW,8.1,-,N/A,,Clear,200,2013-01-28 23:55:00
6:15 PM,66.9,31.8,27,29.80,10.0,South,6.9,-,N/A,,Clear,170,2013-01-29 00:15:00
6:35 PM,65.3,32.0,29,29.80,10.0,South,8.1,-,N/A,,Clear,180,2013-01-29 00:35:00
7:35 PM,62.8,32.0,32,29.80,10.0,South,8.1,-,N/A,,Clear,170,2013-01-29 01:35:00
7:55 PM,62.1,32.4,33,29.79,10.0,South,5.8,-,N/A,,Clear,170,2013-01-29 01:55:00
8:15 PM,60.6,32.2,34,29.79,10.0,South,5.8,-,N/A,,Clear,170,2013-01-29 02:15:00
8:35 PM,60.1,32.0,35,29.78,10.0,South,6.9,-,N/A,,Clear,170,2013-01-29 02:35:00
9:15 PM,56.5,32.9,41,29.77,10.0,SE,3.5,-,N/A,,Clear,130,2013-01-29 03:15:00
9:35 PM,55.4,33.6,44,29.77,10.0,SE,5.8,-,N/A,,Clear,130,2013-01-29 03:35:00
9:55 PM,55.2,32.9,43,29.76,10.0,SSE,5.8,-,N/A,,Clear,150,2013-01-29 03:55:00
10:15 PM,53.8,34.9,49,29.75,10.0,SE,6.9,-,N/A,,Clear,140,2013-01-29 04:15:00
10:35 PM,55.8,34.7,45,29.75,10.0,SSE,8.1,-,N/A,,Clear,160,2013-01-29 04:35:00
10:55 PM,54.9,34.9,47,29.75,10.0,SE,5.8,-,N/A,,Clear,140,2013-01-29 04:55:00
11:15 PM,57.9,33.8,40,29.76,10.0,WSW,11.5,23.0,N/A,,Clear,240,2013-01-29 05:15:00
11:35 PM,56.8,33.3,41,29.76,10.0,SW,5.8,-,N/A,,Clear,230,2013-01-29 05:35:00
11:55 PM,52.7,34.2,49,29.77,10.0,WSW,10.4,-,N/A,,Clear,250,2013-01-29 05:55:00